Regional Weather Roundup
Issued by NWS

Home | Current Version | Previous Version | Graphics & Text | Print | Product List | Glossary On
Versions: 1 2 3 4 5 6 7 8 9 10 11 12 13 14 15 16 17 18 19 20 21 22 23 24 25 26 27 28 29 30 31 32 33 34 35 36 37 38 39 40 41 42 43 44 45 46 47 48 49 50
000
ASUS43 KLMK 191402
RWRKY
KENTUCKY REGIONAL WEATHER ROUNDUP
NATIONAL WEATHER SERVICE LOUISVILLE KY
1000 AM EDT TUE SEP 19 2017

NOTE "FAIR" INDICATES FEW OR NO CLOUDS BELOW 12,000 FEET
WITH NO SIGNIFICANT WEATHER AND/OR OBSTRUCTIONS TO VISIBILITY.

KYZ001>023-026-027-061>063-070>075-191500-
WESTERN AND SOUTH CENTRAL KENTUCKY

CITY           SKY/WX    TMP DP  RH WIND       PRES   REMARKS
PADUCAH        MOSUNNY   74  69  85 E3        29.97R
HENDERSON      LGT RAIN  69  68  96 CALM      29.98R
OWENSBORO      LGT RAIN  69  68  96 SE3       30.00R FOG
HOPKINSVILLE   MOSUNNY   76  71  85 SW6       29.98R
BOWLING GREEN  CLOUDY    72  69  90 W10       30.02R
GLASGOW        CLOUDY    71  69  93 CALM      30.02R
$$

KYZ024-025-028>034-038-045-046-053-191500-
NORTH CENTRAL KENTUCKY

CITY           SKY/WX    TMP DP  RH WIND       PRES   REMARKS
LOUISVILLE/SDF TSTM      69  66  90 NE8       30.01F FOG
LOUISVILLE/LOU TSTM      69  69 100 E5        30.03R FOG
FORT KNOX      LGT RAIN  67  67 100 N2        29.99F FOG
$$

KYZ035>037-039>044-047>052-055>060-089>105-191500-
NORTHEAST KENTUCKY

CITY           SKY/WX    TMP DP  RH WIND       PRES   REMARKS
LEXINGTON      CLOUDY    71  66  84 E5        30.02R
COVINGTON      CLOUDY    69  69 100 SW8       30.01R
FRANKFORT      LGT RAIN  70  67  90 NW6       30.01R FOG
$$

KYZ054-064>069-076>088-106>120-191500-
SOUTHEAST KENTUCKY

CITY           SKY/WX    TMP DP  RH WIND       PRES   REMARKS
JACKSON        SUNNY     69  61  75 CALM      30.04S
LONDON         SUNNY     72  63  73 VRB3      30.05R
SOMERSET       CLOUDY    70  64  83 S3        30.04S
MIDDLESBORO    PTSUNNY   63  63 100 CALM      30.07S
MONTICELLO     MOSUNNY   76  67  73 NE7       30.04R
$$




USA.gov is the U.S. government's official web portal to all federal, state and local government web resources and services.